Change the Weather History Date:

Tuesday, January 1, 2013

  Actual Average (KLVN) Record (KLVN)
Temperature  
Mean Temperature 1 °F -  
Max Temperature 19 °F 21 °F 46 °F (1998)
Min Temperature -17 °F 4 °F -30 °F (1974)
Degree Days  
Heating Degree Days 64    
Moisture  
Dew Point -3 °F    
Average Humidity 77    
Maximum Humidity 84    
Minimum Humidity 65    
Precipitation  
Precipitation 0.00 in - - ()
Sea Level Pressure  
Sea Level Pressure 30.17 in    
Wind  
Wind Speed 5 mph (SSW)    
Max Wind Speed 17 mph    
Max Gust Speed 21 mph    
Visibility 10 miles    
Events Snow    
Averages and records for this station are not official NWS values.
T = Trace of Precipitation, MM = Missing Value Source: NWS Daily Summary

Daily Weather History Graph

Daily Weather History Graph

Search for Another Location

Airport or City:

Trip Planner

Search our weather history database for the weather conditions in past years. The results will help you decide how hot, cold, wet, or windy it might be!

Date:

Astronomy

Jan. 01, 2013 Rise Set
Actual Time 7:48 AM CST 4:43 PM CST
Civil Twilight 7:15 AM CST 5:16 PM CST
Nautical Twilight 6:38 AM CST 5:53 PM CST
Astronomical Twilight 6:03 AM CST 6:28 PM CST
Moon 9:26 PM CST 9:50 AM CST
Length of Visible Light 10h 01m
Length of Day
8h 54m
Waning Gibbous, 83% of the Moon is Illuminated
Jan 1
Waning Gibbous
Jan 4
Last Quarter
Jan 11
New
Jan 18
First Quarter
Jan 26
Full

Hourly Weather History & Observations

Time (CST) Temp. Windchill Dew Point Humidity Pressure Visibility Wind Dir Wind Speed Gust Speed Precip Events Conditions
12:12 AM -11.2 °F - -16.4 °F 78% 30.24 in 10.0 mi Calm Calm - N/A   Clear
12:33 AM -12.6 °F - -18.6 °F 75% 30.24 in 10.0 mi Calm Calm - N/A   Clear
12:53 AM -13.0 °F -27.0 °F -18.6 °F 76% 30.23 in 10.0 mi SW 5.8 mph - N/A   Clear
1:12 AM -15.5 °F -28.0 °F -21.6 °F 74% 30.24 in 10.0 mi SSW 4.6 mph - N/A   Clear
1:32 AM -13.7 °F -25.9 °F -20.0 °F 73% 30.24 in 10.0 mi South 4.6 mph - N/A   Clear
1:53 AM -14.8 °F -29.1 °F -20.6 °F 75% 30.24 in 10.0 mi South 5.8 mph - N/A   Clear
2:12 AM -13.0 °F -27.0 °F -19.1 °F 74% 30.24 in 10.0 mi South 5.8 mph - N/A   Clear
2:32 AM -12.3 °F -26.1 °F -18.0 °F 76% 30.25 in 10.0 mi SSW 5.8 mph - N/A   Clear
2:53 AM -11.2 °F -23.0 °F -17.1 °F 75% 30.25 in 10.0 mi SSW 4.6 mph - N/A   Clear
3:12 AM -13.0 °F -25.1 °F -18.8 °F 75% 30.25 in 10.0 mi SSW 4.6 mph - N/A   Clear
3:32 AM -15.2 °F -25.2 °F -21.3 °F 74% 30.25 in 10.0 mi South 3.5 mph - N/A   Clear
3:53 AM -11.0 °F - -16.8 °F 76% 30.25 in 10.0 mi Calm Calm - N/A   Clear
4:12 AM -13.4 °F -25.5 °F -19.5 °F 74% 30.25 in 10.0 mi SSW 4.6 mph - N/A   Clear
4:32 AM -12.6 °F -24.6 °F -18.2 °F 76% 30.25 in 10.0 mi South 4.6 mph - N/A   Clear
4:53 AM -11.7 °F -21.3 °F -17.5 °F 76% 30.25 in 10.0 mi SSW 3.5 mph - N/A   Clear
5:13 AM -15.2 °F -27.6 °F -21.3 °F 74% 30.25 in 10.0 mi SSW 4.6 mph - N/A   Clear
5:32 AM -13.2 °F -22.9 °F -19.1 °F 75% 30.25 in 10.0 mi SSW 3.5 mph - N/A   Clear
5:53 AM -11.0 °F - -16.2 °F 78% 30.25 in 10.0 mi Calm Calm - N/A   Clear
6:12 AM -13.2 °F - -19.3 °F 74% 30.26 in 10.0 mi Calm Calm - N/A   Clear
6:32 AM -13.0 °F - -19.3 °F 73% 30.26 in 10.0 mi Calm Calm - N/A   Clear
6:53 AM -13.9 °F - -19.7 °F 75% 30.26 in 10.0 mi Calm Calm - N/A   Clear
7:13 AM -16.8 °F -31.5 °F -23.6 °F 71% 30.25 in 10.0 mi SSW 5.8 mph - N/A   Clear
7:32 AM -15.3 °F -27.8 °F -21.8 °F 73% 30.24 in 10.0 mi SSW 4.6 mph - N/A   Clear
7:53 AM -17.3 °F -27.6 °F -24.3 °F 70% 30.24 in 10.0 mi SSW 3.5 mph - N/A   Clear
8:13 AM -16.4 °F -26.6 °F -22.7 °F 73% 30.24 in 10.0 mi South 3.5 mph - N/A   Clear
8:32 AM -15.0 °F - -20.9 °F 75% 30.24 in 10.0 mi Calm Calm - N/A   Clear
8:53 AM -12.3 °F -26.1 °F -18.2 °F 75% 30.23 in 10.0 mi SSW 5.8 mph - N/A   Clear
9:13 AM -11.4 °F -23.2 °F -17.5 °F 74% 30.24 in 10.0 mi SW 4.6 mph - N/A   Clear
9:32 AM -9.8 °F -19.0 °F -15.5 °F 76% 30.24 in 10.0 mi SSW 3.5 mph - N/A   Clear
9:53 AM -7.1 °F - -12.5 °F 77% 30.23 in 10.0 mi Calm Calm - N/A   Clear
10:13 AM -4.2 °F - -8.7 °F 81% 30.23 in 10.0 mi Calm Calm - N/A   Clear
10:32 AM -2.4 °F -10.6 °F -7.1 °F 80% 30.23 in 10.0 mi SSW 3.5 mph - N/A   Clear
10:53 AM -0.6 °F -8.5 °F -5.3 °F 81% 30.22 in 10.0 mi SW 3.5 mph - N/A   Clear
11:12 AM 1.8 °F -5.8 °F -2.6 °F 82% 30.21 in 10.0 mi South 3.5 mph - N/A   Clear
11:32 AM 3.2 °F -7.8 °F -1.1 °F 82% 30.20 in 10.0 mi SSW 5.8 mph - N/A   Scattered Clouds
11:52 AM 5.2 °F -5.4 °F 0.7 °F 82% 30.19 in 10.0 mi SSW 5.8 mph - N/A   Overcast
12:13 PM 7.7 °F -3.7 °F 2.5 °F 79% 30.18 in 10.0 mi SSW 6.9 mph - N/A   Overcast
12:32 PM 8.8 °F -3.5 °F 1.2 °F 71% 30.18 in 10.0 mi SSW 8.1 mph - N/A   Overcast
12:52 PM 10.6 °F 1.0 °F 1.2 °F 66% 30.17 in 10.0 mi SSW 5.8 mph - N/A   Overcast
1:13 PM 11.7 °F 2.3 °F 1.8 °F 65% 30.16 in 10.0 mi SSW 5.8 mph - N/A   Overcast
1:32 PM 12.2 °F -0.2 °F 2.7 °F 66% 30.16 in 10.0 mi SSW 9.2 mph - N/A Snow Light Snow
1:52 PM 12.0 °F -1.3 °F 3.2 °F 68% 30.16 in 10.0 mi SSW 10.4 mph - N/A Snow Light Snow
2:13 PM 12.2 °F 1.7 °F 4.5 °F 71% 30.15 in 10.0 mi SSW 6.9 mph - N/A Snow Light Snow
2:32 PM 12.7 °F 1.4 °F 5.7 °F 74% 30.15 in 10.0 mi SSW 8.1 mph - N/A   Overcast
2:52 PM 13.1 °F 0.9 °F 6.3 °F 74% 30.15 in 10.0 mi SSW 9.2 mph - N/A Snow Light Snow
3:13 PM 13.6 °F 1.6 °F 6.8 °F 74% 30.14 in 10.0 mi SW 9.2 mph - N/A   Overcast
3:32 PM 14.0 °F 2.0 °F 7.7 °F 76% 30.14 in 10.0 mi SW 9.2 mph - N/A   Overcast
3:52 PM 14.5 °F 1.9 °F 8.4 °F 77% 30.14 in 10.0 mi SW 10.4 mph - N/A   Overcast
4:12 PM 14.7 °F 2.1 °F 9.1 °F 79% 30.13 in 10.0 mi SW 10.4 mph - N/A   Overcast
4:32 PM 14.9 °F 2.3 °F 9.7 °F 80% 30.14 in 10.0 mi SW 10.4 mph - N/A   Overcast
4:53 PM 15.4 °F 5.6 °F 10.4 °F 80% 30.13 in 10.0 mi SW 6.9 mph - N/A   Overcast
5:12 PM 15.8 °F 4.2 °F 10.8 °F 80% 30.13 in 10.0 mi SW 9.2 mph - N/A   Overcast
5:32 PM 15.6 °F 7.0 °F 10.8 °F 81% 30.12 in 10.0 mi SSW 5.8 mph - N/A Snow Light Snow
5:53 PM 15.8 °F 10.2 °F 11.1 °F 82% 30.12 in 10.0 mi SSW 3.5 mph - N/A   Overcast
6:12 PM 16.2 °F 6.5 °F 11.3 °F 81% 30.11 in 10.0 mi SSW 6.9 mph - N/A   Overcast
6:33 PM 16.7 °F 6.2 °F 11.7 °F 81% 30.10 in 10.0 mi SSW 8.1 mph - N/A   Overcast
6:52 PM 17.1 °F 6.6 °F 11.7 °F 79% 30.10 in 10.0 mi SSW 8.1 mph - N/A   Overcast
7:12 PM 17.2 °F 7.8 °F 11.8 °F 79% 30.10 in 10.0 mi SSW 6.9 mph - N/A   Overcast
7:33 PM 17.6 °F 9.3 °F 12.2 °F 79% 30.08 in 10.0 mi SSW 5.8 mph - N/A   Overcast
7:52 PM 18.1 °F 10.0 °F 12.7 °F 79% 30.08 in 10.0 mi SSW 5.8 mph - N/A   Overcast
8:13 PM 18.1 °F 8.9 °F 13.1 °F 81% 30.07 in 10.0 mi SSW 6.9 mph - N/A   Overcast
8:33 PM 18.5 °F 6.1 °F 13.6 °F 81% 30.07 in 10.0 mi SW 11.5 mph - N/A   Overcast
8:52 PM 19.9 °F 8.6 °F 14.9 °F 81% 30.07 in 10.0 mi SW 10.4 mph - N/A   Overcast
9:12 PM 19.9 °F 10.1 °F 15.3 °F 82% 30.06 in 10.0 mi SW 8.1 mph - N/A   Overcast
9:33 PM 19.9 °F 12.1 °F 15.4 °F 83% 30.06 in 10.0 mi SSW 5.8 mph - N/A   Overcast
9:52 PM 19.9 °F 8.6 °F 15.3 °F 82% 30.05 in 10.0 mi SSW 10.4 mph - N/A   Overcast
10:12 PM 19.4 °F 8.6 °F 14.9 °F 83% 30.05 in 10.0 mi SSW 9.2 mph - N/A   Overcast
10:33 PM 19.4 °F 7.9 °F 15.3 °F 84% 30.04 in 10.0 mi SSW 10.4 mph - N/A   Overcast
10:52 PM 19.4 °F 7.9 °F 14.9 °F 83% 30.04 in 10.0 mi SSW 10.4 mph - N/A   Overcast
11:12 PM 19.8 °F 5.0 °F 14.4 °F 80% 30.04 in 10.0 mi SW 17.3 mph - N/A   Overcast
11:33 PM 19.4 °F 6.0 °F 14.0 °F 80% 30.03 in 7.0 mi SSW 13.8 mph 20.7 mph N/A   Overcast
11:52 PM 18.1 °F 5.6 °F 13.1 °F 81% 30.03 in 10.0 mi SSW 11.5 mph - N/A   Overcast